GPS BIII-1 (43873 NORAD) Tracking and Keplerian Element Data

This shows tracking and keplerian element data for the satellite.

Feedback or suggestion? Click here.




ElementValue
Catalog43873
NameGPS BIII-1
Epoch Orbit2048
Epoch Day269.56329904
Epoch Year2021
RAAN160.3107
Inclination55.045
Eccentricity0.0014408
Argument of Perigee192.9487
Mean Anonmoly265.7563
Mean Motion2.00561301
Decay Rate-6E-08
L11 43873U 18109A 21269.56329904 -.00000006 00000-0 00000-0 0 9999
L22 43873 55.0450 160.3107 0014408 192.9487 265.7563 2.00561301 20487

Live tracking and technical data element details for GPS BIII-1 (NORAD 43873). GPS BIII-1 can be tracked NOW for your location showing map with azimuth and elevation plus other details from your city location.

Track the satellite on the map from your city or location and see movement details for azimuth, elevation, latitude, longitude, range, height, and movement on the map or in text.







IsCatalogInMostPopularTable: catalog: 43873, numindb: 1075
Update: records affected: 1



GetName: 43873 GPS BIII-1

Hit Count: updated at: Tue, 28 Sep 2021 15:54:43 GMT